Wind_Speed
29 29 30 30 31 31 28 26 23 23 23 23 22 21 20 20 20 20 19 19 18 18 17 17 17 16 16 15 14 13 12 12 11 11 10 10 9 8 8 7 6 6 5 4 4 5 5 5 4
30 31 32 33 34 33 30 28 26 26 26 25 25 23 22 22 21 21 20 20 20 20 19 19 18 18 17 16 15 14 13 13 12 12 12 11 10 9 9 8 7 6 6 5 5 5 5 5 5
32 33 34 35 35 33 31 29 28 28 28 27 27 26 25 23 22 22 22 22 21 21 21 20 20 19 19 18 17 16 15 14 14 13 13 12 12 10 10 9 8 7 7 6 5 5 5 5 5
35 36 36 37 35 33 32 31 30 31 30 30 29 28 26 25 24 24 23 23 23 23 22 22 21 21 20 19 19 18 17 16 15 15 14 13 13 12 11 10 9 9 8 7 6 6 6 6 5
37 38 39 39 36 34 34 33 32 32 32 32 31 30 29 27 26 26 25 25 25 24 24 24 23 22 22 21 20 19 19 18 17 16 16 15 14 13 12 11 10 10 9 9 8 7 7 7 7
39 40 41 40 38 36 35 35 34 34 34 33 33 32 31 30 29 28 27 27 26 26 25 25 24 24 23 23 22 21 20 20 19 18 17 16 15 14 13 12 12 11 11 10 9 8 8 8 7
40 42 42 41 40 39 38 37 36 36 36 35 35 34 33 32 31 30 29 28 28 27 26 25 25 25 24 24 24 23 22 21 21 20 19 17 16 15 14 13 12 12 11 11 10 10 9 8 8
42 43 44 43 41 41 40 39 39 38 38 38 37 36 34 33 33 32 31 30 29 29 28 27 26 26 25 25 25 24 24 23 22 21 20 19 18 17 15 14 13 13 12 12 11 10 10 9 9
43 45 44 43 43 43 42 42 41 41 40 39 39 38 37 36 35 34 34 32 31 30 30 29 28 28 27 27 26 26 25 24 24 23 22 21 20 19 18 16 15 14 14 13 13 12 11 10 10
44 46 44 44 45 45 45 44 43 43 43 42 41 40 39 38 37 37 36 35 33 32 31 30 30 29 29 28 28 27 27 26 25 25 24 23 22 21 20 19 18 16 16 15 14 13 12 11 11
46 46 46 47 47 47 48 47 46 46 45 44 43 42 41 40 40 39 38 37 36 35 34 33 32 31 30 30 29 29 28 27 27 26 25 24 24 23 22 20 20 18 17 17 15 14 14 13 12
47 47 47 48 49 50 50 50 49 49 47 47 46 45 44 43 42 41 40 39 39 38 37 36 34 33 32 32 31 30 29 29 28 27 27 26 25 24 23 22 21 20 19 18 17 16 15 14 14
47 47 47 49 50 50 51 52 52 51 50 50 49 48 47 46 45 44 43 42 41 40 39 39 37 35 34 33 33 32 31 31 30 29 28 28 27 26 25 24 23 22 21 20 19 18 17 16 15
46 47 47 49 50 50 52 53 54 52 52 52 51 50 49 48 47 46 45 44 43 42 41 41 39 38 37 36 35 33 32 32 31 30 30 29 29 28 26 26 25 24 23 22 21 20 19 18 18
45 47 48 49 50 50 52 54 54 53 54 54 53 52 51 49 49 48 47 46 45 44 43 42 41 40 39 38 37 35 34 33 32 32 32 31 30 29 27 27 26 25 25 24 23 23 22 21 20
44 45 46 47 48 49 50 52 52 53 53 54 54 53 52 51 50 49 48 48 47 46 45 45 43 42 41 40 39 37 36 35 34 34 34 33 32 31 30 29 28 27 27 26 25 25 24 23 23
42 43 43 43 45 47 49 49 49 50 52 53 53 53 53 52 51 50 49 48 48 48 47 46 46 45 43 42 41 40 39 37 36 36 35 34 33 32 32 30 30 29 28 28 27 26 25 25 24
40 41 41 42 43 45 48 48 48 49 51 52 53 53 53 52 52 51 50 49 48 48 48 47 47 47 46 45 42 41 40 39 38 37 37 36 35 34 33 32 31 31 30 29 28 28 27 26 26
37 39 41 41 42 44 46 47 47 48 49 50 52 53 53 53 52 52 51 50 49 49 48 47 47 47 47 46 45 44 42 41 40 39 38 38 37 36 35 34 33 32 32 31 30 30 29 28 28
34 36 38 39 40 41 44 46 47 47 48 48 50 52 53 53 53 53 52 51 51 50 49 48 48 48 47 47 47 46 45 43 41 40 39 38 38 38 37 36 35 34 34 33 32 32 31 30 30
32 33 34 36 37 39 41 43 45 47 47 48 49 52 53 54 53 53 52 52 51 50 49 49 49 48 48 47 47 47 46 44 43 41 41 41 40 39 38 38 37 37 36 36 35 34 33 32 32
30 30 31 34 36 37 38 41 42 45 47 47 48 50 52 53 53 53 53 53 52 51 50 50 51 50 50 49 48 48 48 46 44 43 42 41 41 40 40 39 38 39 38 37 36 36 35 35 34
27 28 29 31 33 36 37 39 40 42 45 46 47 49 51 52 53 53 53 53 53 53 52 51 52 51 51 50 50 49 48 48 47 46 43 43 42 42 41 40 39 38 38 38 38 38 37 37 37
26 27 29 30 32 35 35 36 38 39 40 42 44 47 49 51 52 52 53 54 54 53 52 52 53 51 51 50 51 51 50 49 48 47 46 45 43 42 42 41 40 39 39 39 39 39 39 38 38
25 26 26 28 30 33 33 35 36 36 36 38 40 42 46 48 50 51 52 54 54 53 52 52 53 52 51 51 51 51 51 50 49 48 47 46 46 45 44 42 41 40 40 40 40 40 40 40 40
22 24 24 25 26 28 31 34 35 34 34 35 37 39 41 44 47 50 52 52 53 53 52 51 52 52 52 52 52 52 51 50 50 49 48 47 46 46 45 43 42 42 42 41 41 41 41 41 41
20 21 22 22 24 26 29 31 33 32 34 35 36 37 39 41 43 46 49 51 51 51 51 51 51 51 51 52 52 53 52 51 50 49 49 48 47 46 46 45 44 44 43 43 42 42 42 42 42
20 20 22 22 22 24 27 29 32 32 33 34 35 36 38 39 41 43 46 48 50 50 51 51 51 50 50 51 52 52 51 51 50 50 49 48 48 48 47 46 45 45 45 44 44 43 43 43 43
19 20 21 22 22 23 24 26 28 29 31 33 34 35 37 39 40 41 43 46 48 49 50 51 50 50 50 51 51 51 51 51 51 50 50 50 49 48 48 47 46 46 46 45 45 45 45 44 44
16 18 20 21 22 22 23 25 26 27 29 31 32 33 36 38 39 40 41 43 45 47 48 49 50 50 51 51 51 51 51 51 50 50 49 50 50 49 49 49 48 47 47 47 46 46 46 46 45
Wind_Direction
245 244 243 242 243 242 241 239 238 239 239 240 239 238 235 232 231 232 230 228 227 226 224 222 220 218 216 214 214 214 213 211 208 205 203 201 199 197 196 193 191 187 186 185 182 182 181 181 179
245 245 244 243 243 243 241 240 239 239 239 240 241 239 236 233 231 232 231 229 228 228 227 225 222 221 220 218 217 217 218 216 214 211 208 206 203 202 201 200 200 198 199 200 197 193 190 194 196
245 245 244 244 244 243 243 241 240 240 239 240 241 240 237 234 232 232 231 230 229 229 229 228 226 224 223 222 220 219 219 219 217 215 211 210 209 208 207 208 209 208 207 207 204 203 202 202 204
246 245 245 245 244 243 244 242 240 240 239 239 239 239 238 235 233 231 230 230 229 229 229 229 228 227 226 223 222 220 220 220 219 217 215 214 214 215 213 213 214 213 211 210 210 210 211 211 214
247 246 246 246 245 243 242 242 240 240 239 239 239 238 237 235 233 232 230 230 230 229 229 229 229 228 227 226 224 223 222 221 219 218 218 217 217 218 218 217 218 217 215 217 218 218 220 221 223
249 248 247 247 245 244 242 241 239 240 239 238 238 237 236 234 233 232 231 230 230 229 229 229 228 228 227 226 226 224 223 222 220 219 218 218 219 219 220 219 219 220 220 221 222 223 224 227 229
250 249 248 247 245 244 242 241 240 239 238 237 237 237 235 234 233 232 232 231 230 229 228 228 227 227 227 227 226 225 224 223 222 221 220 219 220 221 221 219 219 221 221 223 223 225 227 228 230
251 250 249 247 245 244 242 241 240 238 237 237 236 236 235 234 233 233 232 232 231 230 229 228 228 229 228 228 226 226 226 225 223 223 222 222 222 222 222 222 222 223 224 225 226 228 229 230 231
252 251 249 248 246 244 242 240 239 238 237 236 236 235 235 233 233 232 232 232 231 230 230 229 229 230 229 228 227 227 227 226 225 224 224 223 224 225 225 224 225 227 227 229 230 230 231 232 233
253 252 250 248 246 244 243 241 239 237 237 236 236 235 234 234 233 232 231 231 231 231 230 230 230 230 230 229 228 227 227 228 227 226 225 225 225 226 227 227 228 229 230 230 229 231 234 236 238
254 252 251 248 246 245 243 241 239 237 236 235 235 235 234 234 234 233 231 231 230 230 230 230 230 230 230 230 229 228 228 228 227 227 227 227 226 227 228 228 230 230 231 231 231 233 236 239 241
255 253 251 249 247 245 243 241 239 237 236 235 235 235 234 233 233 232 231 231 231 230 230 230 230 230 230 230 229 228 228 228 228 229 229 229 228 228 229 230 231 231 233 234 234 235 238 241 244
254 252 250 248 246 244 243 241 239 237 235 234 234 234 234 233 232 231 231 230 230 230 230 230 230 230 230 229 228 229 229 229 230 230 230 231 231 231 231 231 231 233 234 236 237 237 239 242 246
253 251 248 247 245 244 242 241 239 237 235 234 234 234 234 233 232 231 230 230 230 230 230 229 230 229 229 229 228 229 229 230 231 232 231 232 232 232 231 231 232 233 235 237 240 240 242 244 247
252 250 248 246 246 245 243 241 239 237 235 234 233 233 233 233 232 231 230 230 230 230 229 229 230 229 228 228 228 228 229 230 231 232 232 232 232 232 231 232 233 235 236 238 240 242 244 247 249
252 250 248 245 244 244 243 242 239 237 235 233 232 232 232 232 231 231 231 231 231 230 229 229 229 229 228 228 228 228 230 231 231 232 233 232 232 232 232 233 234 236 238 239 241 244 246 248 248
251 250 248 246 244 244 243 242 240 238 236 233 231 231 231 230 230 230 230 231 231 230 230 230 229 229 228 228 228 229 230 231 232 233 232 232 232 233 232 233 235 237 239 240 241 243 245 247 248
254 251 250 249 246 244 242 241 239 238 237 234 231 230 230 230 229 229 229 229 230 230 229 229 230 229 228 229 229 229 230 232 233 233 233 234 234 234 233 234 235 237 239 240 242 243 245 246 248
256 255 253 250 247 245 242 240 238 237 237 235 233 231 229 228 228 228 228 228 229 229 229 228 229 229 229 229 229 230 232 233 233 233 234 234 234 234 234 235 237 239 240 241 243 245 246 247 248
257 256 254 250 247 245 243 240 238 236 236 235 233 231 229 227 227 227 228 228 228 228 228 229 229 229 230 230 230 230 232 232 233 234 235 235 236 235 235 237 239 240 242 243 245 246 248 249 250
256 257 255 252 247 246 244 240 237 236 236 235 234 232 230 228 227 226 226 227 227 227 229 229 229 229 229 230 230 230 231 232 233 234 235 236 237 236 237 239 240 241 243 244 245 247 249 250 252
257 256 256 252 248 246 245 244 238 236 235 234 233 231 228 227 227 226 226 226 227 228 229 230 229 229 229 230 230 230 231 232 233 234 236 236 238 239 240 241 242 243 244 245 247 248 250 252 254
258 257 255 252 249 247 245 245 240 237 235 233 232 231 228 227 226 226 226 227 227 229 230 229 228 228 228 229 230 230 231 232 233 234 236 237 239 240 241 242 243 244 245 247 248 249 251 253 254
255 255 254 252 250 247 243 244 242 238 235 233 232 230 227 226 227 226 226 227 227 229 230 229 229 229 229 230 230 230 231 232 234 235 236 237 239 240 242 242 244 245 246 247 249 250 252 254 255
254 254 254 251 249 248 243 242 241 238 236 233 231 230 228 226 226 226 227 227 227 228 230 229 229 230 230 231 231 230 231 232 234 235 236 238 240 241 242 242 244 246 247 248 249 251 252 254 255
255 254 252 250 250 248 242 240 238 237 234 231 229 227 227 227 226 227 227 227 228 228 229 229 230 230 230 231 230 230 231 232 234 235 237 238 240 241 242 243 245 246 248 249 250 252 253 254 256
254 251 248 247 248 246 241 238 237 234 231 229 225 224 225 226 227 227 226 226 227 228 229 229 230 230 231 231 231 231 231 232 234 235 237 238 240 242 243 244 245 246 248 249 251 252 253 255 256
253 250 246 247 247 245 243 239 238 234 230 226 224 223 223 223 225 226 226 226 226 228 229 228 229 230 230 230 230 231 231 232 234 235 237 239 241 242 243 244 245 247 248 250 251 252 254 255 256
249 244 246 247 244 242 241 242 239 236 230 225 223 224 224 223 224 225 225 225 225 226 228 229 229 230 230 230 230 230 231 233 234 236 238 239 241 242 243 246 247 248 249 250 251 252 254 255 256
252 248 246 246 244 243 245 244 239 236 232 228 226 224 223 223 223 224 225 226 226 226 226 228 228 229 230 230 231 231 232 234 235 236 238 240 241 243 245 246 247 248 249 250 252 253 254 255 256
Height
5818 5820 5821 5823 5824 5826 5829 5832 5834 5835 5836 5837 5838 5840 5842 5844 5846 5849 5848 5848 5849 5851 5852 5853 5854 5856 5857 5858 5860 5861 5862 5863 5863 5864 5865 5866 5867 5867 5868 5869 5869 5869 5870 5870 5870 5871 5871 5871 5872
5812 5814 5816 5817 5818 5820 5825 5827 5829 5831 5831 5832 5834 5836 5837 5839 5841 5842 5843 5844 5846 5848 5849 5850 5852 5853 5855 5856 5857 5859 5860 5861 5862 5863 5864 5864 5865 5866 5867 5868 5868 5868 5869 5869 5870 5870 5870 5871 5871
5806 5807 5809 5810 5812 5816 5820 5822 5824 5825 5826 5827 5829 5830 5833 5835 5837 5838 5840 5841 5843 5844 5846 5847 5849 5850 5852 5853 5855 5856 5857 5859 5860 5861 5862 5863 5864 5865 5866 5866 5867 5867 5868 5868 5869 5869 5870 5870 5870
5799 5801 5802 5804 5806 5811 5813 5815 5817 5818 5820 5822 5823 5825 5828 5831 5832 5834 5835 5837 5839 5840 5842 5843 5845 5847 5848 5850 5852 5853 5855 5856 5857 5859 5860 5861 5862 5863 5864 5865 5866 5866 5867 5867 5868 5868 5869 5869 5870
5791 5792 5794 5796 5800 5804 5806 5808 5810 5812 5814 5816 5818 5820 5822 5825 5827 5829 5831 5832 5834 5836 5838 5839 5841 5843 5845 5846 5848 5850 5852 5853 5855 5856 5857 5859 5860 5861 5862 5863 5864 5865 5865 5866 5867 5867 5868 5868 5868
5783 5784 5786 5789 5793 5796 5799 5801 5803 5805 5807 5809 5811 5813 5816 5819 5821 5823 5825 5827 5829 5831 5833 5835 5837 5839 5841 5843 5845 5847 5848 5850 5852 5853 5855 5856 5857 5858 5860 5861 5862 5863 5864 5864 5865 5866 5866 5867 5867
5774 5775 5777 5781 5785 5788 5791 5793 5795 5797 5799 5802 5804 5807 5810 5812 5815 5817 5819 5822 5824 5826 5828 5830 5832 5834 5836 5839 5841 5843 5845 5847 5848 5850 5852 5853 5855 5856 5857 5858 5860 5861 5862 5862 5863 5864 5864 5865 5866
5764 5766 5768 5772 5775 5779 5781 5784 5786 5789 5791 5794 5796 5800 5803 5806 5808 5811 5813 5816 5818 5821 5823 5826 5828 5830 5832 5834 5836 5839 5841 5843 5845 5846 5848 5850 5851 5853 5854 5856 5857 5858 5859 5860 5861 5862 5863 5863 5864
5753 5755 5758 5763 5765 5768 5771 5774 5777 5780 5782 5785 5788 5792 5795 5798 5801 5804 5807 5809 5812 5815 5818 5820 5823 5825 5827 5829 5832 5834 5836 5838 5841 5842 5844 5846 5848 5850 5851 5853 5855 5856 5857 5858 5859 5860 5861 5861 5862
5741 5743 5749 5752 5754 5757 5759 5762 5766 5770 5773 5776 5779 5783 5786 5790 5793 5796 5799 5803 5806 5809 5812 5814 5817 5819 5822 5824 5827 5829 5831 5834 5836 5838 5841 5843 5844 5846 5848 5849 5851 5853 5854 5855 5856 5857 5858 5859 5860
5729 5733 5736 5738 5741 5744 5747 5750 5754 5758 5762 5766 5770 5773 5777 5781 5785 5788 5792 5795 5798 5802 5805 5808 5811 5813 5816 5819 5821 5824 5826 5829 5831 5834 5836 5838 5840 5842 5844 5846 5848 5849 5851 5852 5853 5854 5855 5856 5857
5716 5719 5721 5724 5727 5730 5733 5737 5741 5746 5751 5755 5758 5762 5767 5771 5775 5779 5783 5787 5790 5794 5797 5800 5804 5807 5810 5812 5815 5818 5821 5824 5826 5829 5831 5833 5836 5838 5840 5842 5844 5845 5847 5849 5850 5851 5852 5853 5854
5702 5704 5707 5709 5711 5715 5719 5723 5727 5733 5738 5742 5746 5750 5755 5760 5765 5769 5773 5778 5782 5785 5789 5793 5796 5800 5803 5806 5809 5812 5815 5818 5821 5823 5826 5828 5831 5833 5835 5837 5839 5841 5843 5845 5846 5848 5849 5850 5851
5688 5690 5692 5694 5697 5700 5704 5708 5712 5719 5724 5728 5733 5738 5743 5749 5754 5759 5763 5768 5772 5777 5781 5785 5788 5792 5796 5799 5803 5806 5809 5812 5815 5817 5820 5823 5825 5828 5830 5832 5835 5837 5839 5841 5842 5844 5845 5846 5847
5673 5675 5677 5680 5682 5686 5689 5692 5698 5704 5709 5714 5720 5726 5731 5737 5742 5748 5753 5758 5762 5767 5772 5776 5780 5784 5788 5792 5795 5799 5802 5805 5808 5811 5814 5817 5819 5822 5824 5827 5830 5832 5834 5836 5838 5839 5841 5842 5843
5659 5660 5663 5667 5669 5672 5676 5679 5684 5688 5694 5700 5706 5712 5718 5724 5730 5736 5742 5747 5752 5757 5762 5767 5771 5775 5780 5784 5788 5792 5795 5798 5802 5804 5807 5810 5813 5816 5819 5822 5824 5827 5829 5831 5833 5835 5836 5837 5839
5645 5647 5650 5654 5656 5658 5661 5665 5671 5675 5680 5686 5692 5699 5705 5712 5718 5724 5730 5736 5741 5746 5752 5757 5762 5767 5771 5775 5780 5784 5788 5791 5795 5797 5800 5803 5807 5810 5813 5816 5819 5821 5823 5826 5828 5829 5831 5832 5834
5634 5637 5639 5642 5644 5646 5648 5653 5658 5662 5667 5673 5679 5685 5692 5699 5707 5713 5719 5725 5730 5736 5741 5747 5751 5757 5762 5767 5771 5775 5779 5783 5787 5790 5793 5796 5800 5803 5806 5810 5813 5815 5818 5820 5822 5824 5826 5827 5828
5624 5625 5627 5630 5631 5633 5636 5641 5646 5650 5655 5660 5666 5673 5680 5687 5694 5701 5707 5714 5719 5725 5731 5736 5741 5747 5752 5757 5763 5767 5771 5775 5779 5782 5786 5789 5793 5796 5800 5803 5806 5809 5811 5814 5816 5818 5820 5821 5823
5612 5614 5615 5618 5620 5622 5624 5629 5634 5638 5643 5649 5654 5660 5667 5675 5682 5689 5696 5703 5709 5715 5721 5726 5731 5737 5742 5747 5753 5758 5763 5767 5771 5774 5778 5781 5785 5789 5792 5796 5799 5802 5805 5807 5810 5812 5814 5815 5817
5603 5604 5606 5607 5609 5611 5614 5618 5622 5627 5631 5636 5642 5648 5656 5663 5671 5678 5685 5692 5698 5704 5710 5715 5721 5726 5732 5737 5743 5748 5754 5758 5762 5766 5770 5774 5777 5781 5785 5789 5792 5795 5798 5800 5803 5805 5807 5809 5810
5594 5596 5597 5598 5600 5602 5604 5606 5612 5616 5620 5625 5631 5637 5644 5652 5659 5667 5674 5681 5687 5694 5699 5704 5710 5715 5721 5727 5733 5739 5744 5750 5754 5758 5762 5766 5770 5774 5778 5781 5784 5787 5790 5793 5795 5797 5799 5801 5803
5586 5587 5589 5589 5591 5593 5595 5596 5601 5605 5609 5615 5621 5626 5633 5641 5648 5656 5663 5670 5676 5682 5688 5693 5699 5704 5710 5716 5722 5728 5734 5740 5745 5750 5754 5758 5762 5765 5769 5773 5776 5779 5782 5784 5787 5789 5791 5793 5795
5578 5580 5581 5581 5582 5583 5586 5588 5591 5595 5600 5606 5611 5617 5623 5630 5637 5645 5652 5659 5666 5671 5677 5683 5689 5694 5700 5706 5712 5718 5725 5730 5736 5741 5745 5749 5753 5757 5761 5764 5767 5771 5773 5776 5778 5781 5783 5785 5786
5571 5573 5573 5572 5572 5574 5578 5579 5583 5587 5592 5597 5602 5608 5613 5620 5627 5634 5641 5648 5655 5661 5667 5673 5679 5685 5691 5696 5702 5709 5715 5721 5726 5731 5736 5740 5744 5748 5752 5756 5759 5762 5765 5767 5769 5772 5774 5776 5777
5564 5566 5567 5567 5567 5568 5570 5572 5577 5580 5585 5589 5594 5599 5605 5611 5617 5624 5631 5638 5645 5651 5657 5663 5669 5675 5681 5686 5692 5698 5705 5711 5716 5721 5726 5731 5735 5739 5743 5746 5750 5753 5755 5758 5760 5763 5765 5766 5768
5558 5558 5560 5561 5561 5562 5563 5566 5570 5573 5578 5582 5587 5592 5597 5602 5608 5615 5621 5628 5635 5641 5648 5653 5659 5665 5671 5676 5682 5689 5695 5701 5706 5711 5716 5721 5725 5729 5733 5736 5740 5743 5746 5748 5750 5753 5755 5757 5758
5553 5554 5554 5555 5555 5556 5558 5561 5564 5567 5571 5576 5580 5585 5590 5595 5600 5606 5612 5618 5625 5632 5638 5644 5650 5656 5662 5667 5673 5679 5685 5691 5696 5701 5706 5711 5715 5719 5722 5726 5729 5732 5735 5738 5740 5742 5745 5746 5748
5548 5549 5549 5549 5550 5552 5553 5557 5558 5562 5565 5569 5574 5578 5583 5588 5593 5598 5603 5609 5615 5622 5628 5634 5641 5647 5652 5658 5663 5669 5675 5681 5686 5691 5695 5700 5704 5708 5712 5715 5718 5722 5725 5727 5730 5732 5734 5736 5737
5543 5543 5544 5545 5546 5547 5548 5553 5553 5556 5559 5563 5567 5571 5576 5580 5585 5591 5596 5601 5606 5612 5618 5625 5631 5637 5642 5648 5654 5659 5665 5670 5676 5680 5685 5689 5694 5697 5701 5704 5707 5710 5714 5716 5719 5721 5723 5725 5727